Regional Weather Roundup
Issued by NWS Raleigh/Durham, NC

Home | Current Version | Previous Version | Text Only | Print | Product List | Glossary On
Versions: 1 2 3 4 5 6 7 8 9 10 11 12 13 14 15 16 17 18 19 20 21 22 23 24 25 26 27
000
ASUS42 KRAH 252210
RWRRAH
NORTH CAROLINA WEATHER ROUNDUP
NATIONAL WEATHER SERVICE RALEIGH NC
600 PM EDT SAT MAR 25 2017

NOTE: "FAIR" INDICATES FEW OR NO CLOUDS BELOW 12,000 FEET WITH NO
SIGNIFICANT WEATHER AND/OR OBSTRUCTIONS TO VISIBILITY.

NCZ001-053-055-056-065-067-252300-
WESTERN NORTH CAROLINA

CITY           SKY/WX    TMP DP  RH WIND       PRES   REMARKS
ASHEVILLE      PTSUNNY   65  44  46 S8        30.19F
JEFFERSON      MOSUNNY   61  46  56 S5        30.20F
MORGANTON      MOSUNNY   71  46  41 S6        30.22S
HICKORY        MOSUNNY   69  47  45 S8G17     30.18F
RUTHERFORDTON  PTSUNNY   69  48  46 SW5       30.18F
MOUNT AIRY     MOSUNNY   70  50  49 S6        30.20S
BOONE          MOSUNNY   61  43  50 S8        30.23S
$$

NCZ021-022-025-041-071-084-088-252300-
CENTRAL NORTH CAROLINA

CITY           SKY/WX    TMP DP  RH WIND       PRES   REMARKS
CHARLOTTE      PTSUNNY   72  47  40 S12       30.18F
GREENSBORO     CLOUDY    71  49  45 S14       30.18F
WINSTON-SALEM  MOSUNNY   71  44  37 S7        30.19F
RALEIGH-DURHAM PTSUNNY   72  48  42 SW14      30.20S
FORT BRAGG     MOSUNNY   75  47  37 S9G16     30.19F
FAYETTEVILLE   MOSUNNY   76  48  37 SW9       30.20F
BURLINGTON     PTSUNNY   73  49  42 S9        30.18F
LAURINBURG     MOSUNNY   74  49  41 SW9       30.20
$$

NCZ011-015-027-028-043-044-047-080-103-252300-
NORTHEASTERN NORTH CAROLINA

CITY           SKY/WX    TMP DP  RH WIND       PRES   REMARKS
ROCKY MT-WILSO CLOUDY    72  51  47 S13       30.20F
GREENVILLE     CLOUDY    73  50  43 SW9       30.22S
WASHINGTON     MOSUNNY   72  51  47 SW9G17    30.22S
ELIZABETH CITY CLOUDY    72  51  47 S8        30.21S
MANTEO         MOSUNNY   65  52  61 SW22      30.24S
CAPE HATTERAS  MOSUNNY   67  54  63 W9        30.27F
$$

NCZ078-087-090-091-093-098-101-252300-
SOUTHEASTERN NORTH CAROLINA

CITY           SKY/WX    TMP DP  RH WIND       PRES   REMARKS
LUMBERTON      PTSUNNY   75  50  41 S9        30.20F
GOLDSBORO      MOSUNNY   74  49  41 SW12G18   30.19F
KINSTON        MOSUNNY   73  50  43 S13       30.22F
KENANSVILLE    PTSUNNY   72  52  49 S7        30.23S
NEW BERN       MOSUNNY   71  51  49 SW13      30.25F
CHERRY POINT   MOSUNNY   70  50  49 S13G22    30.26F
BEAUFORT       MOSUNNY   68  55  63 S10       30.27F
JACKSONVILLE   MOSUNNY   70  54  56 S13       30.25S
WILMINGTON     PTSUNNY   71  52  50 S9        30.25F
$$





USA.gov is the U.S. government's official web portal to all federal, state and local government web resources and services.